Location: Newark
(25.4297°S, 49.2719°W)
Time: 10:20:46
(UTC+00:00)

Vanguard 1 Rocket - Pass Details

Date: 21 November 2019
Orbit: 650 x 4226 km, 34.3° (Epoch: 15 December)

Event Time Altitude Azimuth Distance (km) Brightness Sun altitude
Rises 13:50:08 0° 333° (NNW) 5,252 11.3 72.4°
Reaches altitude 10° 13:53:17 10° 341° (NNW) 4,655 11.1 73.0°
Maximum altitude 14:06:36 42° 47° (NE) 4,048 11.8 75.9°
Drops below altitude 10° 14:28:06 10° 108° (ESE) 7,356 12.2 80.3°
Sets 14:34:43 0° 114° (ESE) 8,484 12.4 81.5°
